Homestead AFB, FL

12:34 PM EST on November 13, 2019 (GMT -0500)
Dade County-Homestead Regional

Weather History for KHST - October, 2019

Change the Weather History Date:

Tuesday, October 22, 2019

  Actual Average Record
Temperature  
Mean Temperature 82 °F -  
Max Temperature 88 °F 84 °F 92 °F (1941)
Min Temperature 76 °F 68 °F 50 °F (1961)
Cooling Degree Days 17    
Growing Degree Days 32 (Base 50)    
Moisture  
Dew Point 76 °F    
Average Humidity 83    
Maximum Humidity 96    
Minimum Humidity 69    
Precipitation  
Precipitation 0.00 in - - ()
Sea Level Pressure  
Sea Level Pressure 30.00 in    
Wind  
Wind Speed 5 mph (NE)    
Max Wind Speed 10 mph    
Max Gust Speed -    
Visibility 10 miles    
Events      
Averages and records for this station are not official NWS values.
T = Trace of Precipitation, MM = Missing Value Source: NWS Daily Summary

Daily Weather History Graph

Daily Weather History Graph

Search for Another Location

Airport or City:

Astronomy

Oct. 22, 2019 Rise Set
Actual Time 7:23 AM EDT 6:48 PM EDT
Civil Twilight 7:00 AM EDT 7:11 PM EDT
Nautical Twilight 6:33 AM EDT 7:38 PM EDT
Astronomical Twilight 6:06 AM EDT 8:04 PM EDT
Moon 1:21 AM EDT (10/22) 3:10 PM EDT (10/22)
Length of Visible Light 12h 11m
Length of Day
11h 24m
Last Quarter, 37% of the Moon is Illuminated
Oct 22
Last Quarter
Oct 27
New
Nov 4
First Quarter
Nov 12
Full
Nov 19
Last Quarter

Hourly Weather History & Observations

Time (EDT) Temp. Heat Index Dew Point Humidity Pressure Visibility Wind Dir Wind Speed Gust Speed Precip Events Conditions
12:56 AM 80.1 °F 85.7 °F 76.5 °F 89% 30.00 in 10.0 mi ESE 4.6 mph - N/A   Partly Cloudy
1:56 AM 80.2 °F 85.8 °F 75.9 °F 87% 30.00 in 10.0 mi East 3.5 mph - N/A   Scattered Clouds
2:56 AM 77.7 °F - 75.2 °F 92% 30.00 in 10.0 mi Calm Calm - N/A   Clear
3:56 AM 77.4 °F - 75.2 °F 93% 30.00 in 10.0 mi NW 4.6 mph - N/A   Mostly Cloudy
4:09 AM 77.0 °F - 75.2 °F 94% 30.00 in 10.0 mi NW 4.6 mph - N/A   Scattered Clouds
4:56 AM 77.5 °F - 75.4 °F 93% 30.00 in 10.0 mi Calm Calm - N/A   Scattered Clouds
6:20 AM 77.0 °F - 75.2 °F 94% 30.02 in 10.0 mi Calm Calm - N/A   Clear
6:56 AM 77.2 °F - 75.9 °F 96% 30.02 in 10.0 mi NW 3.5 mph - N/A   Clear
7:56 AM 76.8 °F - 75.2 °F 95% 30.02 in 10.0 mi North 3.5 mph - N/A   Clear
8:56 AM 79.7 °F - 77.7 °F 94% 30.04 in 10.0 mi NW 3.5 mph - N/A   Mostly Cloudy
8:57 AM 80.6 °F 87.1 °F 77.0 °F 89% 30.04 in 10.0 mi NNW 3.5 mph - N/A   Mostly Cloudy
9:56 AM 82.0 °F 91.0 °F 78.1 °F 88% 30.04 in 10.0 mi North 4.6 mph - N/A   Clear
10:56 AM 85.6 °F 97.7 °F 78.3 °F 78% 30.03 in 10.0 mi North 6.9 mph - N/A   Unknown
11:56 AM 85.6 °F 96.8 °F 77.2 °F 76% 30.02 in 10.0 mi NE 4.6 mph - N/A   Mostly Cloudy
12:11 PM 86.0 °F 96.9 °F 77.0 °F 74% 30.01 in 10.0 mi ENE 9.2 mph - N/A   Mostly Cloudy
12:16 PM 86.0 °F 96.9 °F 77.0 °F 74% 30.01 in 10.0 mi ENE 6.9 mph - N/A   Scattered Clouds
12:36 PM 86.0 °F 96.9 °F 77.0 °F 74% 30.00 in 10.0 mi ENE 10.4 mph - N/A   Mostly Cloudy
12:41 PM 86.0 °F 96.9 °F 77.0 °F 74% 30.00 in 10.0 mi East 10.4 mph - N/A   Scattered Clouds
12:56 PM 87.6 °F 99.7 °F 77.4 °F 71% 29.99 in 10.0 mi East 10.4 mph - N/A   Scattered Clouds
1:56 PM 88.0 °F 100.7 °F 77.7 °F 71% 29.96 in 10.0 mi East 8.1 mph - N/A   Scattered Clouds
2:51 PM 87.8 °F 99.7 °F 77.0 °F 70% 29.94 in 10.0 mi East 8.1 mph - N/A   Mostly Cloudy
2:56 PM 87.1 °F 98.3 °F 76.8 °F 71% 29.94 in 10.0 mi East 9.2 mph - N/A   Mostly Cloudy
3:01 PM 87.8 °F 99.7 °F 77.0 °F 70% 29.94 in 10.0 mi East 10.4 mph - N/A   Scattered Clouds
3:56 PM 87.8 °F 99.1 °F 76.6 °F 69% 29.94 in 10.0 mi East 8.1 mph - N/A   Mostly Cloudy
4:56 PM 86.5 °F 97.8 °F 76.8 °F 73% 29.95 in 10.0 mi ESE 6.9 mph - N/A   Partly Cloudy
5:56 PM 86.5 °F 98.3 °F 77.2 °F 74% 29.96 in 10.0 mi ESE 8.1 mph - N/A   Clear
6:56 PM 83.1 °F 92.3 °F 77.0 °F 82% 29.96 in 10.0 mi Calm Calm - N/A   Clear
7:56 PM 81.0 °F 87.7 °F 76.6 °F 87% 29.97 in 10.0 mi Calm Calm - N/A   Clear
9:56 PM 78.3 °F - 75.7 °F 92% 30.02 in 10.0 mi Calm Calm - N/A   Clear
10:56 PM 79.9 °F - 75.2 °F 86% 30.02 in 10.0 mi West 3.5 mph - N/A   Clear
11:06 PM 80.6 °F 86.2 °F 75.2 °F 84% 30.01 in 10.0 mi WNW 4.6 mph - N/A   Mostly Cloudy
11:11 PM 80.6 °F 86.2 °F 75.2 °F 84% 30.01 in 10.0 mi WNW 4.6 mph - N/A   Scattered Clouds
11:56 PM 80.2 °F 85.7 °F 75.6 °F 86% 30.02 in 10.0 mi Calm Calm - N/A   Clear